Idx,UserId,Timestamp,Latitude,Longitude,Height,GDOP,PDOP,HDOP,VDOP,TDOP,Iono_Correction,Tropo_Correction,Integrity,Num_Satellites,ReferenceId,Distance,Device
1,1,2013-06-20 10:45:26,51.4920138069,7.4142170910,166.4,7.3950,6.4158,6.0979,1.9944,3.6775,0,0,0,5,2,35.38,USRP2
2,1,2013-06-20 10:46:14,51.4921266685,7.4139710830,139.2,7.5391,6.5535,6.2464,1.9825,3.7270,0,0,0,5,2,14.54,
3,1,2013-06-20 10:46:50,51.4920921760,7.4141606201,147.2,7.6831,6.6929,6.3929,1.9811,3.7729,0,0,0,5,2,26.87,
4,1,2013-06-20 10:48:08,51.4920784570,7.4139508404,109.9,17.7944,13.9406,8.2159,11.2623,11.0589,0,0,0,4,2,18.43,
5,1,2013-06-20 10:48:50,51.4929329800,7.4130112870,117.9,17.5407,13.7595,8.2008,11.0486,10.8789,0,0,0,4,2,97.06,
6,1,2013-06-20 10:49:26,51.4922236477,7.4139356620,132.7,8.3454,7.3121,7.0425,1.9675,4.0221,0,0,0,5,2,6.56,
7,1,2013-06-20 10:50:08,51.4920949281,7.4140060127,142.0,8.5775,7.5305,7.2665,1.9763,4.1068,0,0,0,5,2,18.81,
8,1,2013-06-20 10:50:50,51.4920165740,7.4141664491,155.7,8.8453,7.7841,7.5247,1.9930,4.2007,0,0,0,5,2,32.67,
9,1,2013-06-20 10:51:26,51.4920025289,7.4143351829,154.1,9.0700,7.9884,7.7345,1.9979,4.2954,0,0,0,5,2,42.50,
10,1,2013-06-20 10:52:08,51.4918247850,7.4138318690,56.2,17.0227,13.6941,8.7348,10.5466,10.1115,0,0,0,4,2,45.01,
11,1,2013-06-20 10:52:50,51.4918332284,7.4145235295,170.0,9.6819,8.5466,8.3024,2.0285,4.5491,0,0,0,5,2,64.59,
12,1,2013-06-20 10:53:32,51.4919234621,7.4143805107,148.7,10.0512,8.8891,8.6472,2.0592,4.6916,0,0,0,5,2,50.51,
13,1,2013-06-20 10:54:14,51.4921079296,7.4144833428,184.7,16.9426,13.8956,9.4434,10.1935,9.6935,0,0,0,4,2,46.46,
14,1,2013-06-20 10:54:50,51.4918556657,7.4145172989,172.0,16.9025,13.9209,9.6780,10.0061,9.5864,0,0,0,4,2,62.59,
15,1,2013-06-20 10:55:44,51.4918832726,7.4143622216,153.5,17.0253,14.1480,10.1492,9.8566,9.4707,0,0,0,4,2,52.75,
16,1,2013-06-20 10:56:20,51.4920632122,7.4143883600,178.1,17.2254,14.4255,10.5830,9.8024,9.4136,0,0,0,4,2,42.14,
17,1,2013-06-20 10:57:02,51.4920581524,7.4142487016,165.7,17.4779,14.7496,11.1056,9.7060,9.3767,0,0,0,4,2,34.04,
18,1,2013-06-20 10:57:44,51.4918894900,7.4145722768,168.5,13.1803,11.7228,11.4790,2.3784,6.0246,0,0,0,5,2,63.17,
19,1,2013-06-20 10:58:20,51.4922241330,7.4140168814,141.5,18.0432,15.3911,12.1886,9.3973,9.4164,0,0,0,4,2,12.17,
20,1,2013-06-20 10:59:02,51.4916994393,7.4148213227,162.8,18.5143,15.8832,12.9008,9.2644,9.5133,0,0,0,4,2,89.87,
21,1,2013-06-20 10:59:38,51.4921594477,7.4139388647,143.0,15.5859,13.8920,13.6275,2.6976,7.0664,0,0,0,5,2,10.31,
22,1,2013-06-20 11:00:20,51.4918380262,7.4146320596,166.4,16.6547,14.8514,14.5752,2.8510,7.5376,0,0,0,5,2,69.94,
23,1,2013-06-20 11:00:56,51.4911948097,7.4162609045,230.2,20.7610,18.0789,15.6824,8.9933,10.2064,0,0,0,4,2,203.22,
25,1,2013-06-20 11:09:50,51.4909445036,7.4145192939,103.5,50.0886,44.7868,21.5049,39.2858,22.4277,0,0,0,4,1,144.23,
26,1,2013-06-20 11:10:32,51.4919044944,7.4145569909,137.6,58.7961,52.7877,25.9270,45.9816,25.8927,0,0,0,4,1,37.46,
27,1,2013-06-20 11:11:14,51.4905002745,7.4144261190,77.6,72.0837,65.0234,32.6507,56.2311,31.1127,0,0,0,4,1,193.81,
28,1,2013-06-20 11:11:50,51.4923443525,7.4144762313,151.0,4.6383,3.9826,3.5457,1.8136,2.3776,0,0,0,5,1,12.77,
33,1,2013-06-20 11:15:44,51.4924418341,7.4146085897,160.2,127.5401,118.0852,68.6290,96.0936,48.1900,0,0,0,4,1,22.57,
34,1,2013-06-20 11:16:26,51.4937972170,7.4145156032,195.5,87.7546,81.5985,48.4012,65.6928,32.2882,0,0,0,4,1,173.03,
35,1,2013-06-20 11:17:02,51.4927584027,7.4145400450,174.4,68.1348,63.5243,38.4076,50.5977,24.6373,0,0,0,4,1,57.51,
36,1,2013-06-20 11:17:44,51.4930875327,7.4145759713,189.7,54.5536,51.0811,31.4946,40.2160,19.1523,0,0,0,4,1,94.10,
37,1,2013-06-20 11:18:26,51.4921677675,7.4144947093,144.1,45.4669,42.6952,26.8422,33.2017,15.6314,0,0,0,4,1,9.28,
39,1,2013-06-20 11:19:44,51.4931920579,7.4145119235,173.4,34.5452,32.6600,21.2598,24.7928,11.2556,0,0,0,4,1,105.76,
40,1,2013-06-20 11:21:02,51.4930004447,7.4145234893,182.6,27.7399,26.3619,17.7412,19.4985,8.6341,0,0,0,4,1,84.44,
41,1,2013-06-20 11:22:20,51.4925930844,7.4146315055,165.9,23.2194,22.1743,15.3990,15.9551,6.8875,0,0,0,4,1,39.44,
42,1,2013-06-20 11:23:02,51.4928090434,7.4145681931,204.0,20.6677,17.0007,3.3814,16.6610,11.7529,0,0,0,4,1,63.13,
43,1,2013-07-02 11:09:02,51.4924739032,7.4145288536,179.3,3.5324,3.2069,1.8760,2.6010,1.4809,0,0,0,6,1,25.94,
44,1,2013-07-02 11:09:44,51.4923276470,7.4145384885,184.6,3.5004,3.1751,1.8586,2.5742,1.4738,0,0,0,6,1,9.69,
45,1,2013-07-02 11:10:20,51.4923049885,7.4145444748,161.4,4.6691,4.0815,1.9261,3.5984,2.2676,0,0,0,5,1,7.14,
46,1,2013-07-02 11:11:02,51.4923639008,7.4146394455,164.9,4.6575,4.0729,1.9214,3.5912,2.2591,0,0,0,5,1,14.75,
47,1,2013-07-02 11:11:38,51.4922950498,7.4145630928,162.0,4.6455,4.0638,1.9168,3.5834,2.2508,0,0,0,5,1,5.98,
48,1,2013-07-02 11:12:20,51.4921598730,7.4146012392,144.5,4.6080,4.0269,1.8993,3.5508,2.2400,0,0,0,5,1,9.54,
49,1,2013-07-02 11:12:56,51.4925104786,7.4144792113,183.0,3.5336,3.2066,1.9065,2.5783,1.4846,0,0,0,5,1,30.42,
50,1,2013-07-02 11:13:38,51.4923291121,7.4145391934,167.5,4.6044,4.0330,1.9037,3.5555,2.2216,0,0,0,5,1,9.84,
51,1,2013-07-02 11:14:20,51.4923079909,7.4145365254,164.5,4.5517,3.9802,1.8797,3.5083,2.2082,0,0,0,5,1,7.56,
52,1,2013-07-02 11:14:56,51.4923932062,7.4145809731,188.6,3.4202,3.1117,1.8344,2.5135,1.4196,0,0,0,6,1,16.96,
53,1,2013-07-02 11:15:38,51.4923730694,7.4145454885,160.5,4.5421,3.9809,1.8838,3.5070,2.1870,0,0,0,5,1,14.67,
54,1,2013-07-02 11:16:14,51.4922498485,7.4145469776,159.8,4.5232,3.9658,1.8788,3.4925,2.1754,0,0,0,5,1,1.22,
55,1,2013-07-02 11:17:02,51.4922860321,7.4145216307,157.7,2.5557,2.3011,1.8321,1.3923,1.1121,0,0,0,6,1,5.57,
56,1,2013-07-02 11:17:44,51.4922321111,7.4145281092,149.5,2.5625,2.3085,1.8336,1.4025,1.1123,0,0,0,6,1,2.31,
57,1,2013-07-02 11:18:20,51.4922739474,7.4144372656,160.5,4.4404,3.8944,1.8542,3.4247,2.1332,0,0,0,5,1,9.11,
58,1,2013-07-02 11:19:02,51.4921846394,7.4145842435,176.6,2.5680,2.3147,1.8300,1.4174,1.1121,0,0,0,6,1,6.56,
60,1,2013-07-02 11:20:20,51.4922846466,7.4146265090,161.8,2.6456,2.3830,1.8900,1.4514,1.1492,0,0,0,5,1,6.76,
61,1,2013-07-02 11:21:02,51.4923902433,7.4146353098,179.6,4.3678,3.8425,1.8465,3.3698,2.0766,0,0,0,5,1,17.40,
62,1,2013-07-02 11:21:38,51.4922026631,7.4146272659,168.8,4.1149,3.5891,1.3009,3.3451,2.0126,0,0,0,6,1,6.44,
63,1,2013-07-02 11:22:20,51.4923608389,7.4146026818,165.3,4.2972,3.7792,1.8256,3.3089,2.0455,0,0,0,5,1,13.64,
64,1,2013-07-02 11:22:56,51.4922696579,7.4145508167,155.5,2.5519,2.2982,1.7909,1.4403,1.1092,0,0,0,6,1,3.19,
65,1,2013-07-02 11:23:38,51.4922745959,7.4145817364,170.6,2.5368,2.2821,1.7738,1.4359,1.1078,0,0,0,6,1,4.05,
66,1,2013-07-02 11:24:14,51.4922762736,7.4146070226,165.1,4.2395,3.7381,1.8227,3.2637,2.0000,0,0,0,5,1,5.16,
67,1,2013-07-02 11:24:56,51.4921938264,7.4145525846,154.7,2.5524,2.2994,1.7782,1.4578,1.1080,0,0,0,6,1,5.30,
68,1,2013-07-02 11:34:38,51.4922903208,7.4138339083,147.1,3.6798,3.1666,1.7694,2.6261,1.8745,0,0,0,5,2,6.78,
69,1,2013-07-02 11:35:20,51.4922238776,7.4137386585,132.8,3.6725,3.1682,1.7776,2.6225,1.8573,0,0,0,5,2,7.14,
70,1,2013-07-02 11:35:56,51.4922429071,7.4137696870,127.8,3.6510,3.1533,1.7759,2.6057,1.8401,0,0,0,5,2,5.18,
71,1,2013-07-02 11:36:38,51.4922535094,7.4137755421,132.5,3.6159,3.1241,1.7666,2.5767,1.8206,0,0,0,5,2,5.28,
72,1,2013-07-02 11:37:20,51.4922961650,7.4138678727,148.6,7.6726,6.3781,4.0209,4.9511,4.2647,0,0,0,4,2,7.63,
73,1,2013-07-02 11:37:56,51.4922998206,7.4137487554,129.8,3.5489,3.0683,1.7489,2.5211,1.7832,0,0,0,5,2,10.11,
74,1,2013-07-02 11:38:38,51.4922663132,7.4137594086,151.7,3.5209,3.0467,1.7436,2.4984,1.7647,0,0,0,5,2,6.99,
75,1,2013-07-02 11:39:14,51.4922807288,7.4139053855,155.2,3.5033,3.0359,1.7440,2.4849,1.7483,0,0,0,5,2,7.22,
76,1,2013-07-02 11:39:56,51.4922598963,7.4137337872,156.4,3.4645,3.0021,1.7318,2.4523,1.7290,0,0,0,5,2,8.18,
77,1,2013-07-02 11:40:38,51.4922266450,7.4138681773,142.1,3.4242,2.9671,1.7189,2.4185,1.7092,0,0,0,5,2,1.88,
78,1,2013-07-02 11:41:14,51.4922731524,7.4139779729,175.4,3.3990,2.9477,1.7141,2.3980,1.6925,0,0,0,5,2,10.63,
79,1,2013-07-02 11:42:02,51.4921883847,7.4137953363,165.0,11.2959,10.6693,9.1570,5.4757,3.7098,0,0,0,4,2,5.57,
80,1,2013-07-02 11:42:38,51.4922864466,7.4138019713,141.5,3.3450,2.9062,1.7042,2.3541,1.6561,0,0,0,5,2,6.89,
81,1,2013-07-02 11:43:20,51.4922230611,7.4138007355,145.2,3.3199,2.8873,1.7000,2.3337,1.6387,0,0,0,5,2,2.90,
82,1,2013-07-02 11:44:02,51.4923621683,7.4138626003,157.2,3.2757,2.8477,1.6841,2.2963,1.6189,0,0,0,5,2,14.82,
83,1,2013-07-02 11:44:44,51.4922542345,7.4138637788,145.6,3.2725,2.8526,1.6936,2.2954,1.6037,0,0,0,5,2,3.15,
84,1,2013-07-02 11:45:20,51.4923017096,7.4139985680,169.7,3.2354,2.8196,1.6804,2.2641,1.5868,0,0,0,5,2,13.52,
85,1,2013-07-02 11:46:38,51.4926238861,7.4145054879,155.9,8.6903,8.0390,7.0500,3.8631,3.3009,0,0,0,4,2,63.54,
86,1,2013-07-02 11:47:20,51.4922543510,7.4138647648,157.7,3.1401,2.7386,1.6515,2.1845,1.5364,0,0,0,5,2,3.20,
87,1,2013-07-02 11:48:08,51.4922213909,7.4138522888,146.9,3.1391,2.7467,1.6639,2.1854,1.5197,0,0,0,5,2,1.18,
88,1,2013-07-02 11:48:44,51.4922781097,7.4138240019,142.3,3.0434,2.6469,1.5834,2.1210,1.5020,0,0,0,6,2,5.53,
89,1,2013-07-02 11:49:26,51.4922551350,7.4138397357,149.6,5.8791,4.8611,3.2441,3.6202,3.3067,0,0,0,5,2,2.85,
90,1,2013-07-02 11:50:02,51.4922526243,7.4140004804,164.3,3.3839,2.9455,2.1042,2.0612,1.6657,0,0,0,5,2,11.31,
91,1,2013-07-02 12:07:38,51.4922273997,7.4145563848,163.1,3.6150,3.1055,2.0501,2.3327,1.8504,0,0,0,5,1,1.55,
92,1,2013-07-02 12:08:14,51.4922373490,7.4145522654,153.8,3.6127,3.1022,2.0436,2.3340,1.8514,0,0,0,5,1,0.60,
93,1,2013-07-02 12:08:56,51.4922492520,7.4146148500,151.5,3.6121,3.1010,2.0384,2.3369,1.8524,0,0,0,5,1,4.03,
94,1,2013-07-02 12:09:32,51.4922202191,7.4146021018,147.3,3.6144,3.1031,2.0359,2.3419,1.8533,0,0,0,5,1,3.85,
95,1,2013-07-02 12:10:14,51.4922168853,7.4146145522,164.8,3.6069,3.0946,2.0266,2.3387,1.8529,0,0,0,5,1,4.77,
96,1,2013-07-02 12:10:50,51.4921453057,7.4146209638,169.0,3.3197,2.8653,1.6133,2.3680,1.6763,0,0,0,6,1,11.54,
97,1,2013-07-02 12:11:32,51.4921959620,7.4146371567,137.3,3.6357,3.1265,2.0399,2.3694,1.8555,0,0,0,5,1,7.45,
98,1,2013-07-02 12:12:08,51.4923408164,7.4144729752,194.1,3.6138,3.1026,2.0220,2.3532,1.8529,0,0,0,5,1,12.53,
99,1,2013-07-02 12:12:50,51.4921999723,7.4145383887,136.2,2.9132,2.6132,1.4529,2.1721,1.2876,0,0,0,6,1,4.80,
100,1,2013-07-02 12:13:32,51.4922550405,7.4145606395,141.4,6.4849,5.3250,4.2499,3.2084,3.7012,0,0,0,4,1,1.54,
101,1,2013-07-02 12:14:08,51.4921772949,7.4145909581,167.5,6.5215,5.3455,4.2643,3.2234,3.7357,0,0,0,4,1,7.48,
102,1,2013-07-02 12:14:50,51.4922069229,7.4145998095,159.7,3.6449,3.1405,2.0361,2.3911,1.8501,0,0,0,5,1,4.80,
103,1,2013-07-02 12:15:26,51.4920904039,7.4145883400,154.8,3.3237,2.8624,1.6104,2.3664,1.6893,0,0,0,6,1,16.92,
104,1,2013-07-02 12:16:14,51.4921317809,7.4145746185,146.4,3.6125,3.1078,2.0125,2.3682,1.8416,0,0,0,5,1,12.24,
105,1,2013-07-02 12:16:56,51.4922279157,7.4146048384,157.4,3.6039,3.1003,2.0067,2.3632,1.8376,0,0,0,5,1,3.57,
106,1,2013-07-02 12:17:32,51.4921959927,7.4145893251,156.7,3.6280,3.1287,2.0235,2.3862,1.8367,0,0,0,5,1,5.49,
107,1,2013-07-02 12:18:14,51.4922245587,7.4145748575,152.4,3.6093,3.1104,2.0116,2.3723,1.8310,0,0,0,5,1,2.20,
108,1,2013-07-02 12:19:02,51.4922416342,7.4145691676,164.4,3.6116,3.1158,2.0147,2.3768,1.8263,0,0,0,5,1,0.78,
109,1,2013-07-02 12:19:38,51.4922741622,7.4145394773,159.3,3.6075,3.1138,2.0135,2.3752,1.8216,0,0,0,5,1,3.87,
110,1,2013-07-02 12:20:20,51.4922803534,7.4145059070,156.5,3.5857,3.0926,2.0007,2.3583,1.8146,0,0,0,5,1,5.64,
111,1,2013-07-02 12:20:56,51.4922685729,7.4145603666,144.7,3.5997,3.1109,2.0126,2.3722,1.8111,0,0,0,5,1,3.03,
112,1,2013-07-02 12:21:38,51.4922727862,7.4145767241,155.6,3.5882,3.1015,2.0076,2.3641,1.8044,0,0,0,5,1,3.73,
113,1,2013-07-02 12:22:14,51.4922009786,7.4146093686,159.4,3.5832,3.0991,2.0071,2.3613,1.7985,0,0,0,5,1,5.73,
114,1,2013-07-02 12:22:56,51.4922111078,7.4145678095,140.7,3.5756,3.0943,2.0055,2.3564,1.7916,0,0,0,5,1,3.43,
115,1,2013-07-02 12:31:26,51.4922571608,7.4138195161,133.6,8.1691,6.6762,5.4160,3.9037,4.7076,0,0,0,4,2,3.43,
116,1,2013-07-02 12:32:02,51.4922514150,7.4139593723,175.2,8.1868,6.6843,5.4325,3.8946,4.7268,0,0,0,4,2,8.53,
117,1,2013-07-02 12:32:44,51.4922752492,7.4137810801,130.7,8.2577,6.7529,5.4974,3.9219,4.7526,0,0,0,4,2,6.58,
118,1,2013-07-16 09:26:02,51.4925131606,7.4145385141,175.6,66.9916,60.2541,30.1039,52.1942,29.2795,0,0,0,4,1,30.25,
119,1,2013-07-16 09:27:02,51.4905001444,7.4145917084,126.4,53.3241,48.2996,25.3690,41.0999,22.5965,0,0,0,4,1,193.63,
120,1,2013-07-16 09:28:08,51.4920976348,7.4145925343,158.9,7.0125,6.8210,6.0594,3.1319,1.6278,0,0,0,5,1,16.16,
121,1,2013-07-16 09:29:14,51.4922641905,7.4144918232,156.2,7.4098,7.2292,6.4392,3.2860,1.6258,0,0,0,5,1,5.24,
122,1,2013-07-16 09:30:14,51.4923802049,7.4145052755,151.4,7.7169,7.5444,6.7359,3.3979,1.6224,0,0,0,5,1,15.86,
123,1,2013-07-16 09:31:20,51.4925542933,7.4144371138,140.5,8.1018,7.9381,7.1032,3.5439,1.6200,0,0,0,5,1,35.79,
124,1,2013-07-16 09:32:20,51.4924236676,7.4145720067,164.5,10.9017,9.2584,3.2894,8.6543,5.7558,0,0,0,5,1,20.30,
125,1,2013-07-16 09:33:20,51.4919775621,7.4145887155,163.3,8.9983,8.8516,7.9482,3.8957,1.6178,0,0,0,5,1,29.41,
126,1,2013-07-16 09:34:26,51.4927688197,7.4142498275,100.2,9.5046,9.3661,8.4225,4.0969,1.6170,0,0,0,5,1,62.41,
127,1,2013-07-16 09:35:26,51.4920369351,7.4145350184,166.6,10.0060,9.8745,8.8897,4.2987,1.6165,0,0,0,5,1,22.79,
128,1,2013-07-16 09:36:26,51.4920023545,7.4145960491,163.4,10.5836,10.4592,9.4238,4.5372,1.6175,0,0,0,5,1,26.71,
129,1,2013-07-16 09:37:26,51.4920376173,7.4145988850,157.8,11.0604,10.9415,9.8642,4.7343,1.6172,0,0,0,5,1,22.83,
130,1,2013-07-16 09:38:32,51.4922288164,7.4144968431,161.5,3.3995,3.0305,1.8211,2.4223,1.5403,0,0,0,6,1,4.45,
131,1,2013-07-16 09:39:32,51.4920035439,7.4145137003,158.2,3.4256,3.0593,1.8388,2.4451,1.5411,0,0,0,6,1,26.62,
132,1,2013-07-16 09:40:38,51.4926279406,7.4144353577,143.0,12.0904,11.9820,10.8020,5.1849,1.6157,0,0,0,5,1,43.82,
133,1,2013-07-16 09:41:38,51.4914537018,7.4148100057,169.0,12.1027,11.9946,10.8069,5.2040,1.6136,0,0,0,5,1,89.30,
134,1,2013-07-16 09:42:38,51.4924207361,7.4144853517,148.5,24.7765,24.4948,23.3009,7.5537,3.7255,0,0,0,4,1,20.57,
135,1,2013-07-16 09:43:38,51.4922712298,7.4145234843,160.5,4.0103,3.5048,2.0196,2.8643,1.9492,0,0,0,5,1,4.09,
136,1,2013-07-16 09:44:44,51.4922563087,7.4145639109,163.6,3.4683,3.1083,1.8729,2.4807,1.5387,0,0,0,6,1,1.71,
137,1,2013-07-16 09:45:44,51.4923414340,7.4144989995,149.2,3.5024,3.1460,1.8955,2.5109,1.5394,0,0,0,6,1,11.85,
138,1,2013-07-16 09:46:50,51.4921790080,7.4145489974,140.6,6.1669,5.3870,2.5654,4.7369,3.0019,0,0,0,5,1,6.96,
139,1,2013-07-16 09:47:50,51.4923385887,7.4145767983,156.1,6.0221,5.2777,2.5495,4.6210,2.9002,0,0,0,5,1,10.89,
140,1,2013-07-16 09:48:50,51.4922676312,7.4145398704,156.8,3.5259,3.1736,1.9140,2.5315,1.5364,0,0,0,6,1,3.18,
141,1,2013-07-16 09:49:50,51.4922537252,7.4145322471,156.4,3.5440,3.1941,1.9265,2.5477,1.5356,0,0,0,6,1,2.25,
142,1,2013-07-16 09:50:56,51.4922184794,7.4144792872,153.3,3.6618,3.2876,1.9743,2.6287,1.6126,0,0,0,5,1,6.01,
143,1,2013-07-16 10:03:32,51.4922606595,7.4137154480,142.8,9.6243,7.6287,5.0120,5.7512,5.8677,0,0,0,4,2,9.38,
144,1,2013-07-16 10:04:44,51.4922735607,7.4137928931,160.0,5.0654,4.5155,1.7093,4.1795,2.2952,0,0,0,5,2,5.94,
145,1,2013-07-16 10:05:44,51.4922713447,7.4138855838,154.7,3.6398,3.1534,1.5600,2.7405,1.8177,0,0,0,6,2,5.57,
146,1,2013-07-16 10:06:50,51.4922526443,7.4138544635,162.2,4.9192,4.1257,2.0315,3.5909,2.6789,0,0,0,5,2,2.73,
147,1,2013-07-16 10:07:50,51.4922489041,7.4137165794,138.0,3.8057,3.2809,1.6343,2.8449,1.9285,0,0,0,5,2,8.90,
148,1,2013-07-16 10:08:50,51.4923140085,7.4139526128,175.1,3.7541,3.2360,1.6236,2.7992,1.9031,0,0,0,5,2,12.15,
149,1,2013-07-16 10:09:50,51.4922614192,7.4139004795,155.9,10.2263,8.1276,5.5640,5.9245,6.2063,0,0,0,4,2,5.42,
150,1,2013-07-16 10:10:56,51.4921973479,7.4137794107,136.6,3.7118,3.2139,1.6352,2.7668,1.8571,0,0,0,5,2,5.58,
151,1,2013-07-16 10:11:56,51.4922535235,7.4140061305,181.3,10.5392,8.4092,5.8286,6.0616,6.3529,0,0,0,4,2,11.72,
152,1,2013-07-16 10:12:56,51.4922650937,7.4138656333,157.3,4.7755,4.0247,2.0483,3.4645,2.5704,0,0,0,4,2,4.30,
153,1,2013-07-16 10:15:20,51.4922296507,7.4141278998,188.2,10.9681,8.7459,6.1742,6.1942,6.6189,0,0,0,4,2,19.84,
154,1,2013-07-16 10:16:20,51.4922874205,7.4139067274,167.2,4.5161,3.9643,2.1385,3.3381,2.1631,0,0,0,4,2,7.87,
155,1,2013-07-16 10:17:26,51.4922370458,7.4138825521,157.6,3.4997,3.0477,1.6110,2.5871,1.7204,0,0,0,5,2,2.97,
156,1,2013-07-16 10:18:26,51.4922308926,7.4138235574,146.0,3.4851,3.0414,1.6162,2.5764,1.7017,0,0,0,5,2,1.24,
157,1,2013-07-16 10:19:26,51.4922248247,7.4136288829,123.8,3.4409,3.0021,1.6035,2.5380,1.6814,0,0,0,5,2,14.72,
158,1,2013-07-16 10:20:32,51.4922701495,7.4138496837,159.2,4.4660,3.7912,1.9818,3.2320,2.3604,0,0,0,4,2,4.55,
159,1,2013-07-16 10:21:38,51.4922599177,7.4139493609,165.7,4.4281,3.7646,1.9746,3.2052,2.3315,0,0,0,4,2,8.21,
160,1,2013-07-16 10:22:38,51.4922279292,7.4139560750,162.5,12.2924,9.8529,7.2006,6.7254,7.3499,0,0,0,4,2,7.94,
161,1,2013-07-16 10:24:50,51.4922788343,7.4137042381,127.3,3.3177,2.9141,1.5956,2.4385,1.5859,0,0,0,5,2,10.96,
162,1,2013-07-16 10:25:50,51.4922668743,7.4138789431,156.3,4.2977,3.6766,1.9519,3.1157,2.2255,0,0,0,4,2,4.90,
163,1,2013-07-16 10:26:56,51.4922169152,7.4137089397,130.9,3.2570,2.8649,1.5824,2.3882,1.5494,0,0,0,5,2,9.27,
164,1,2013-07-16 10:27:56,51.4922520724,7.4139135826,140.4,4.2494,3.6504,1.9487,3.0867,2.1753,0,0,0,4,2,5.59,
165,1,2013-07-17 08:47:08,51.4922064687,7.4139374988,154.8,4.1462,3.4757,2.5544,2.3570,2.2607,0,0,0,6,2,7.13,
166,1,2013-07-17 08:48:20,51.4922212997,7.4138470794,136.9,4.1004,3.4424,2.5441,2.3189,2.2279,0,0,0,6,2,1.00,
167,1,2013-07-17 08:49:32,51.4922306961,7.4138138109,151.4,4.0179,3.3680,2.5043,2.2521,2.1909,0,0,0,6,2,1.91,
168,1,2013-07-17 08:50:44,51.4922084804,7.4138675830,153.6,3.9862,3.3495,2.5046,2.2239,2.1611,0,0,0,6,2,2.96,
169,1,2013-07-17 08:51:44,51.4922615738,7.4138875970,150.6,3.9577,3.3317,2.5035,2.1983,2.1363,0,0,0,6,2,4.79,
170,1,2013-07-17 08:52:50,51.4920126046,7.4138233617,112.5,14.2038,11.6640,2.5203,11.3884,8.1054,0,0,0,5,2,24.15,
171,1,2013-07-17 08:53:50,51.4921059862,7.4138199047,134.2,15.3568,12.6333,2.5386,12.3756,8.7309,0,0,0,5,2,13.82,
172,1,2013-07-17 08:54:50,51.4922462919,7.4138719546,148.1,3.8251,3.2242,2.4605,2.0835,2.0582,0,0,0,6,2,2.82,
173,1,2013-07-17 08:55:50,51.4922206375,7.4139300681,142.2,4.1070,3.5074,2.7297,2.2025,2.1367,0,0,0,4,2,6.22,
174,1,2013-07-17 08:56:56,51.4922656490,7.4138823228,156.3,3.7822,3.2011,2.4678,2.0389,2.0144,0,0,0,6,2,4.92,
175,1,2013-07-17 08:57:56,51.4922867886,7.4138705540,150.6,3.7465,3.1729,2.4584,2.0058,1.9923,0,0,0,6,2,6.68,
176,1,2013-07-17 08:58:56,51.4921991389,7.4139029125,152.7,3.7095,3.1428,2.4476,1.9715,1.9706,0,0,0,6,2,5.44,
177,1,2013-07-17 09:00:14,51.4922937299,7.4138180690,156.4,3.6715,3.1137,2.4400,1.9343,1.9455,0,0,0,6,2,7.32,
178,1,2013-07-17 09:01:14,51.4922555233,7.4138745021,148.6,3.6335,3.0816,2.4270,1.8990,1.9251,0,0,0,6,2,3.69,
179,1,2013-07-17 09:02:14,51.4923549410,7.4138433306,176.0,27.9655,23.0341,2.8063,22.8625,15.8587,0,0,0,5,2,13.95,
180,1,2013-07-17 09:03:14,51.4920098833,7.4138452198,120.2,28.3801,23.4043,2.8580,23.2292,16.0520,0,0,0,5,2,24.42,
181,1,2013-07-17 09:04:20,51.4921917791,7.4138242878,121.9,27.8121,22.9363,2.8780,22.7550,15.7301,0,0,0,5,2,4.36,
182,1,2013-07-17 09:05:20,51.4923386423,7.4137684683,141.7,3.5315,3.0053,2.4138,1.7903,1.8547,0,0,0,6,2,13.14,
183,1,2013-07-17 09:06:20,51.4922398377,7.4137558579,174.9,3.5183,2.9987,2.4199,1.7710,1.8400,0,0,0,6,2,6.03,
184,1,2013-07-17 09:07:26,51.4922980909,7.4138063195,145.6,22.8484,18.8057,2.8073,18.5950,12.9767,0,0,0,5,2,8.00,
185,1,2013-07-17 09:08:32,51.4917882304,7.4138172823,81.6,20.9636,17.3158,2.8033,17.0873,11.8169,0,0,0,5,2,49.10,
186,1,2013-07-17 09:09:38,51.4922629091,7.4138728526,151.3,3.4700,2.9693,2.4319,1.7038,1.7956,0,0,0,6,2,4.31,
187,1,2013-07-17 09:10:44,51.4922716827,7.4138237907,149.5,3.4379,2.9408,2.4199,1.6710,1.7807,0,0,0,6,2,4.84,
188,1,2013-07-17 09:11:50,51.4923583400,7.4137529441,149.1,3.4142,2.9216,2.4156,1.6433,1.7668,0,0,0,6,2,15.58,
189,1,2013-07-17 09:12:50,51.4922536551,7.4138180055,144.4,3.3990,2.9107,2.4168,1.6220,1.7553,0,0,0,6,2,3.13,
190,1,2013-07-17 09:28:50,51.4924248489,7.4145003247,151.4,8.8067,8.6566,7.7779,3.8003,1.6185,0,0,0,5,1,20.79,
191,1,2013-07-17 09:29:50,51.4922379763,7.4145693731,153.2,3.8537,3.3465,1.9806,2.6975,1.9110,0,0,0,5,1,0.87,
192,1,2013-07-17 09:30:56,51.4921322846,7.4146091001,161.0,9.8456,9.7116,8.7509,4.2116,1.6184,0,0,0,5,1,12.63,
193,1,2013-07-17 09:31:56,51.4921674157,7.4145864783,153.6,3.3680,2.9968,1.8017,2.3947,1.5372,0,0,0,6,1,8.46,
194,1,2013-07-17 09:32:56,51.4927184328,7.4144056994,128.2,10.8834,10.7623,9.7148,4.6313,1.6191,0,0,0,5,1,54.09,
195,1,2013-07-17 09:34:02,51.4919886424,7.4146232269,161.3,11.3888,11.2730,10.1808,4.8407,1.6195,0,0,0,5,1,28.46,
196,1,2013-07-17 09:35:02,51.4926542251,7.4144626937,142.0,11.7966,11.6848,10.5544,5.0139,1.6198,0,0,0,5,1,46.38,
197,1,2013-07-17 09:36:02,51.4921157628,7.4145961476,143.3,3.8515,3.4517,1.9223,2.8669,1.7086,0,0,0,5,1,14.21,
198,1,2013-07-17 09:37:02,51.4921678661,7.4146031358,153.0,3.4316,3.0684,1.8497,2.4482,1.5365,0,0,0,6,1,8.75,
199,1,2013-07-17 09:38:08,51.4922231261,7.4145768649,151.8,3.4400,3.0780,1.8567,2.4550,1.5359,0,0,0,6,1,2.41,
200,1,2013-07-17 09:39:08,51.4914178231,7.4147367995,183.6,22.3014,22.0393,20.9194,6.9359,3.4093,0,0,0,4,1,92.41,
201,1,2013-07-17 09:41:14,51.4920343486,7.4146369646,157.6,3.4789,3.1221,1.8856,2.4883,1.5347,0,0,0,6,1,23.66,
202,1,2013-07-17 09:42:14,51.4922786345,7.4145113377,151.6,3.5033,3.1492,1.9023,2.5098,1.5348,0,0,0,6,1,5.25,
203,1,2013-07-17 09:43:14,51.4922919374,7.4144995892,148.6,10.2126,10.0857,9.0233,4.5059,1.6045,0,0,0,5,1,6.93,
204,1,2013-07-17 09:44:14,51.4923555774,7.4145446103,165.6,5.6125,4.8905,2.9314,3.9145,2.7537,0,0,0,4,1,12.73,
205,1,2013-07-17 09:45:20,51.4920226618,7.4146312200,153.9,9.1689,9.0279,8.0332,4.1195,1.6021,0,0,0,5,1,24.84,
206,1,2013-07-17 09:46:20,51.4921064634,7.4145481238,147.6,3.6306,3.2533,1.9565,2.5993,1.6116,0,0,0,5,1,15.01,
207,1,2013-07-17 09:47:20,51.4923515353,7.4145216559,155.8,4.0850,3.5927,2.0381,2.9587,1.9441,0,0,0,5,1,12.51,
208,1,2013-07-17 09:48:26,51.4922582449,7.4145641080,150.4,8.6002,8.3179,7.4499,3.6997,2.1854,0,0,0,4,1,1.93,
209,1,2013-07-17 09:49:26,51.4921404990,7.4145549052,140.6,4.1013,3.6105,2.0369,2.9811,1.9456,0,0,0,5,1,11.22,
210,1,2013-07-17 09:50:26,51.4922295104,7.4145362133,165.8,4.1085,3.6185,2.0359,2.9914,1.9458,0,0,0,5,1,2.00,
211,1,2013-07-17 09:51:32,51.4923442451,7.4145388342,150.6,3.5503,3.2098,1.9439,2.5542,1.5174,0,0,0,6,1,11.52,
212,1,2013-07-17 09:52:32,51.4922528991,7.4145429947,150.6,7.0364,6.7026,5.8027,3.3544,2.1417,0,0,0,4,1,1.65,
213,1,2013-07-18 14:26:14,51.4921955641,7.4146130971,140.6,4.5281,4.1222,2.4557,3.3109,1.8738,0,0,0,4,1,6.36,
214,1,2013-07-18 14:56:50,51.4923513270,7.4147894595,164.7,12.5580,9.8106,4.8046,8.5535,7.8395,0,0,0,4,1,20.16,
215,1,2013-07-18 14:59:56,51.4920565608,7.4148134284,125.9,5.3430,5.0954,3.2072,3.9594,1.6076,0,0,0,4,1,27.11,
216,1,2013-07-18 15:00:56,51.4920315937,7.4147763779,121.6,5.4572,5.2101,3.2730,4.0537,1.6236,0,0,0,4,1,27.80,
217,1,2013-07-18 15:03:02,51.4921663011,7.4146084629,139.7,5.6854,5.4377,3.4044,4.2402,1.6596,0,0,0,4,1,9.05,
218,1,2013-08-14 10:24:32,51.4923058029,7.4145184980,160.4,5.1865,4.5191,4.1243,1.8474,2.5450,0,0,0,4,1,7.67,
219,1,2013-08-14 10:25:14,51.4922144641,7.4145793050,153.5,2.9122,2.5973,1.7562,1.9136,1.3170,0,0,0,5,1,3.34,
220,1,2013-08-14 10:25:56,51.4922422832,7.4146823705,160.5,2.9179,2.6063,1.7691,1.9140,1.3120,0,0,0,5,1,8.61,